Regional Weather Roundup
Issued by NWS

Home | Current Version | Previous Version | Graphics & Text | Print | Product List | Glossary On
Versions: 1 2 3 4 5 6 7 8 9 10 11 12 13 14 15 16 17 18 19 20 21 22 23 24 25 26 27 28 29 30 31 32 33 34 35 36 37 38 39 40 41 42 43 44 45 46 47 48 49 50
771
ASUS43 KDMX 222206
RWRIA

WEATHER ROUNDUP FOR IOWA
NATIONAL WEATHER SERVICE DES MOINES IA
400 PM CST MON JAN 22 2018

NOTE: "FAIR" INDICATES FEW OR NO CLOUDS BELOW 12,000 FEET WITH NO
SIGNIFICANT WEATHER AND/OR OBSTRUCTIONS TO VISIBILITY.

* - THESE STATIONS ARE NOT NWS STATIONS...THUS NOT UNDER NWS
QUALITY CONTROL.  THEY ALSO DO NOT REPORT WEATHER SUCH
AS PRECIPITATION OR FOG.

IAZ001>003-012>014-020>022-031>034-043>046-222300-
   NORTHWEST IOWA

CITY           SKY/WX    TMP DP  RH WIND       PRES   REMARKS
CARROLL *      MIX PCPN  32  32 100 N26G39    29.49R VSB 1   WCI  18
CHEROKEE *     LGT SNOW  29  28  96 N26G37    29.62R VSB 3/4 WCI  15
DENISON *      LGT RAIN  30  30 100 N29G39    29.55R WCI  15
LE MARS *      MIX PCPN  28  28 100 N20G32    29.68R VSB 1/2 WCI  15
ORANGE CITY *  CLOUDY    28  28 100 N21G30    29.66R WCI  15
SHELDON *      FOG       27  27 100 N32G47    29.64R VSB 1/4 WCI  10
SIOUX CITY     LGT SNOW  29  28  96 N28G37    29.68R VSB 1   WCI  14
SPENCER        FOG       29  27  92 N26G38    29.61R VSB 1/2 WCI  14
STORM LAKE *   SNOW      28  28 100 N33G43    29.55R VSB 1/4 WCI  12
$$

IAZ055>058-069>071-079>083-090>094-222300-
   SOUTHWEST IOWA

CITY           SKY/WX    TMP DP  RH WIND       PRES   REMARKS
ATLANTIC *     LGT RAIN  34  34 100 N24G32    29.46R WCI  21
AUDUBON *      LGT SNOW  32  30  93 N25G35    29.48R WCI  19
CLARINDA *     CLOUDY    36  36 100 N18G25      N/A  WCI  25
COUNCIL BLFS * LGT SNOW  32  32 100 N22G33    29.53R VSB 3/4 WCI  19
CRESTON *      CLOUDY    36  36 100 S8        29.40R FOG     WCI  29
HARLAN  *      LGT SNOW  32  32 100 N22G33    29.53R WCI  19
LAMONI         MIX PCPN  35  33  92 SW7       29.40R WCI  29
RED OAK *      LGT RAIN  34  34 100 N21G29    29.48R WCI  22
SHENANDOAH *   MIX PCPN  34  34 100 N21G28    29.50R WCI  22
$$

IAZ047>049-059>061-072>074-084-222300-
   CENTRAL IOWA

CITY           SKY/WX    TMP DP  RH WIND       PRES   REMARKS
AMES           CLOUDY    37  37 100 NE17G24   29.43R WCI  27
ANKENY *       MIX PCPN  37  36  93 S7        29.43R WCI  32
BOONE *        LGT RAIN  36  34  93 NE18G28   29.43R WCI  25
CHARITON *     CLOUDY    36  36 100 S6        29.42R WCI  31
DES MOINES     CLOUDY    38  36  92 S7        29.42R WCI  33
GRINNELL*      CLOUDY    41  33  72 S12       29.43R
KNOXVILLE *    CLOUDY    39  34  81 S9        29.41R WCI  33
MARSHALLTOWN   CLOUDY    41  38  89 NW7       29.43R
NEWTON *       CLOUDY    39  36  87 SW6       29.43R WCI  35
PELLA *        CLOUDY    40  33  76 S9        29.44S WCI  34
PERRY *        LGT RAIN  36  36  99 N15G23    29.44R WCI  26
$$

IAZ004>006-015-016-023>025-035-036-222300-
   NORTH CENTRAL IOWA

CITY           SKY/WX    TMP DP  RH WIND       PRES   REMARKS
ALGONA *       LGT SNOW  30 N/A N/A N25G35    29.54R WCI  16
CLARION *      CLOUDY    34  34 100 NE25G33   29.47R WCI  21
ESTHERVILLE    FOG       27  27 100 N28G40    29.60R VSB 1/2 WCI  11
FORT DODGE *   LGT SNOW  32  30  92 N16G24    29.49R FOG     WCI  21
MASON CITY     CLOUDY    33  30  88 NE20      29.50R WCI  21
FOREST CITY *  CLOUDY    32  32 100 NE21G26   29.52R WCI  20
WEBSTER CITY * CLOUDY    34  34 100 N22G33    29.44R FOG     WCI  22
IOWA FALLS *   CLOUDY    35  34  96 NE16G22   29.46R FOG     WCI  25
$$

IAZ007>011-017>019-026>030-037>042-050>054-066-222300-
   NORTHEAST IOWA

CITY           SKY/WX    TMP DP  RH WIND       PRES   REMARKS
CEDAR RAPIDS   CLOUDY    44  35  70 W6        29.43R
CHARLES CITY * CLOUDY    34  34 100 NE17      29.48R FOG     WCI  23
CLINTON *      MOCLDY    47  37  68 W17       29.43R
DECORAH *      CLOUDY    34  34 100 NE8G16    29.48R FOG     WCI  27
DUBUQUE        FOG       40  40 100 N7        29.44R VSB 1/2
MONTICELLO *   MOCLDY    45  43  93 VRB5      29.44R
OELWEIN *      CLOUDY    36  36 100 NE13      29.45R WCI  27
WATERLOO       CLOUDY    36  34  92 NE12      29.45R WCI  28
$$

IAZ064-065-067-068-078-222300-
   EAST CENTRAL IOWA

CITY           SKY/WX    TMP DP  RH WIND       PRES   REMARKS
DAVENPORT      MOCLDY    46  34  62 W17       29.46R
IOWA CITY      PTSUNNY   45  32  60 W8        29.46R
MT. PLEASANT * CLOUDY    41  30  65 SW20      29.47R
MUSCATINE *    CLOUDY    46  30  53 SW16      29.46R
QUAD CITIES    CLOUDY    47  34  60 W17       29.44R
$$

IAZ062-063-075>077-085>089-095>099-222300-
   SOUTHEAST IOWA

CITY           SKY/WX    TMP DP  RH WIND       PRES   REMARKS
BURLINGTON     CLOUDY    43  29  57 SW15G25   29.46R
FAIRFIELD *    CLOUDY    39  34  81 SW9       29.45R WCI  33
FORT MADISON * CLOUDY    43  30  61 SW13      29.47R
KEOKUK *       CLOUDY    43  30  61 SW14G21   29.46S
OSKALOOSA *    CLOUDY    38  34  85 SW9       29.45R WCI  31
OTTUMWA        LGT RAIN  38  34  85 S10       29.44R WCI  31
WASHINGTON *   CLOUDY    43  32  65 SW15G22   29.46R
$$

ABBREVIATIONS USED IN REMARKS
   TC - TEMPERATURES IN CELSIUS
  WCI - WIND CHILL INDEX
   HX - HEAT INDEX
  VSB - VISIBILITY
$$





USA.gov is the U.S. government's official web portal to all federal, state and local government web resources and services.